Powrót do katalogu

STARLINK-35603

AktywnyŁącznośćVLEO
NORAD 66141·PAYLOAD·🇺🇸 United States

Wystrzelony Oct 22, 2025 z Vandenberg Space Force Base

Loading…

Następne Przeloty (najbliższe 24 godziny)

TLE

ŚwieżeSource: CelesTrak SupGP

Epoka: Sep 14, 2026, 14:37 UTC

1 66141C 25237AD  26257.60951389 -.00028102  00000+0 -83054-3 0  2574
2 66141  53.1568 239.2032 0001404  87.8065 355.2927 15.34394673    11

Śledź STARLINK-35603 w czasie rzeczywistym z AllMySat

Download on the App Store